Location: Seasalter
(51.3333°N, 1.0167°E)
Time: 06:02:29
(UTC+00:00)

ATLAS 5 CENTAUR R/B - Pass Details

Date: 26 April 2024
Orbit: 421 x 1170 km, 63.3° (Epoch: 18 May)

Event Time Altitude Azimuth Distance (km) Brightness Sun altitude
Rises 23:52:55 0° 316° (NW) 2,820 5.6 -24.7°
Reaches altitude 10° 23:55:01 10° 321° (NW) 2,016 4.8 -24.7°
Maximum altitude 23:59:31 54° 39° (NE) 891 2.5 -24.7°
Enters shadow 00:02:37 24° 107° (ESE) 1,601 3.5 -24.7°
